Theta_e
289 289 289 291 293 296 296 295 290 285 285 289 290 295 295 293 292 291 292 292 292 292 292 292 293 293 293 294 295 296 296 297 297 298 299 299 300 301
289 288 289 289 291 293 295 295 295 291 288 291 292 293 294 294 291 292 291 290 290 290 290 291 291 291 291 293 294 294 295 295 296 297 297 298 299 300
287 288 287 289 288 289 293 294 293 293 289 288 290 290 290 291 289 291 289 289 288 288 289 289 289 289 289 290 291 292 292 293 294 295 295 296 299 299
285 287 287 287 287 288 289 290 290 290 289 285 286 285 286 287 288 288 289 287 285 288 288 288 287 289 289 289 290 290 290 291 292 292 293 295 296 297
285 285 286 286 285 286 287 288 288 290 289 285 285 285 285 285 285 285 285 285 287 287 288 288 288 289 289 288 289 289 290 290 291 291 292 293 295 296
285 285 286 286 285 286 286 287 287 286 285 285 285 284 285 284 285 284 284 285 285 285 286 286 287 288 288 287 288 288 289 290 290 291 291 293 293 295
284 284 285 285 286 289 287 287 286 285 285 285 285 285 284 284 284 284 284 284 284 284 284 284 282 284 283 285 285 288 289 289 290 290 291 292 293 293
283 283 283 285 286 289 289 288 288 285 285 285 285 284 284 284 285 284 284 283 281 284 284 283 282 282 279 280 287 287 288 288 289 290 291 292 292 292
283 283 283 284 285 286 287 288 286 288 287 286 285 284 284 284 285 284 284 283 282 283 283 282 282 279 277 281 286 287 287 288 289 290 291 292 291 291
281 283 283 283 284 285 285 285 285 285 285 285 285 285 285 286 285 285 284 282 283 282 282 281 281 280 276 276 285 286 286 287 288 290 291 292 291 290
281 282 282 282 285 286 284 284 285 285 287 288 289 289 289 288 287 285 282 283 281 280 281 282 282 277 274 274 278 284 285 286 288 289 290 291 290 289
279 280 281 282 284 286 285 284 284 284 283 283 284 284 285 284 285 284 283 282 281 279 281 281 281 282 274 275 274 275 278 284 286 287 289 290 291 284
276 277 277 281 284 285 286 285 285 285 284 283 283 282 282 282 282 282 282 281 281 279 281 282 281 282 281 274 273 272 278 280 281 282 285 288 289 289
274 275 277 281 283 285 284 287 287 286 284 283 282 281 279 280 280 281 280 278 279 279 280 281 281 280 279 269 270 273 279 280 280 280 281 284 286 287
275 277 278 280 282 283 285 286 284 284 284 282 280 278 278 279 279 279 279 279 276 273 278 272 280 274 272 269 269 269 278 280 280 278 280 282 281 281
273 272 275 279 280 282 281 282 283 284 283 281 279 279 280 280 277 279 278 280 280 276 276 276 274 273 270 272 271 268 269 277 278 278 278 283 283 284
270 267 270 272 274 276 279 279 281 282 282 282 281 280 280 278 277 279 280 280 279 277 273 274 274 276 275 270 271 275 277 277 277 278 279 283 283 283
264 264 267 269 271 273 274 276 280 280 281 282 282 281 280 278 276 278 279 279 278 278 275 272 271 270 271 273 276 275 277 277 278 279 278 283 282 284
258 262 264 266 268 270 271 272 274 278 281 281 281 281 280 277 276 275 278 278 278 277 277 273 273 279 268 266 269 280 276 277 279 281 279 279 282 283
256 260 262 263 264 266 268 269 271 275 277 278 280 281 280 278 276 275 276 278 277 277 277 272 270 270 269 268 266 272 280 277 278 279 280 282 282 287
254 256 259 261 263 264 266 268 269 271 276 278 280 280 280 279 277 276 275 275 277 277 276 267 268 270 265 265 267 272 276 281 281 278 278 279 282 283
253 253 256 256 258 261 264 265 267 269 272 275 276 280 280 280 278 277 275 274 277 276 271 269 268 268 267 267 264 266 270 276 281 283 282 280 280 280
254 253 254 255 254 254 258 261 264 266 268 271 272 274 278 279 279 276 275 276 275 275 270 268 267 267 265 266 266 267 270 274 277 283 284 286 286 286
Wind_Speed
9 10 8 7 8 3 1 3 2 1 3 3 1 3 3 3 5 4 5 5 3 2 1 2 2 5 7 7 9 11 12 14 16 18 20 22 24 24
9 11 10 8 7 7 2 3 3 1 1 1 1 2 3 3 4 4 5 5 3 1 2 1 3 5 7 7 9 11 14 15 16 18 20 22 24 24
12 11 12 10 7 6 6 3 1 3 1 1 1 2 2 4 2 3 4 3 2 0 1 2 3 4 6 6 8 11 13 15 16 18 20 22 23 23
13 12 12 9 9 8 6 5 4 3 2 3 1 1 2 3 3 2 2 2 1 1 2 2 2 4 6 6 9 11 12 14 17 18 20 21 21 22
11 12 11 12 11 8 6 4 3 3 2 1 2 1 1 1 1 1 1 1 1 2 3 3 3 5 7 8 9 11 13 15 16 18 19 19 20 20
10 10 10 11 11 9 6 6 3 1 2 1 1 2 1 1 1 1 1 1 0 1 1 1 3 5 5 7 9 12 15 15 16 17 18 19 18 20
10 10 10 11 19 15 6 7 3 2 2 0 2 1 1 1 1 1 2 2 1 0 1 2 2 2 4 5 7 11 15 15 17 17 17 17 17 20
11 11 10 12 16 19 16 15 9 4 3 1 2 1 1 2 1 1 1 2 2 2 1 2 1 2 2 2 10 12 13 16 18 18 17 17 18 18
10 11 10 9 13 13 14 11 9 12 11 3 3 3 2 2 2 1 2 1 2 1 1 2 2 1 1 3 10 10 15 16 16 17 18 19 17 17
11 10 11 13 15 14 12 9 6 7 7 5 4 3 3 4 4 2 2 3 2 2 2 2 2 1 2 2 11 12 14 14 16 18 18 19 17 16
10 11 12 14 22 23 11 11 7 4 6 11 12 14 15 13 9 1 1 2 2 2 4 2 0 0 1 2 4 15 13 14 15 16 18 19 17 16
9 10 18 20 25 23 11 10 8 5 4 4 4 8 9 10 13 7 4 2 2 2 2 1 1 0 2 2 2 3 5 16 12 17 17 18 19 6
9 9 10 25 24 22 18 9 7 4 5 4 4 4 4 5 5 6 7 4 2 3 3 1 1 1 3 1 2 3 5 6 7 8 13 17 18 16
9 8 10 25 22 19 13 17 13 6 3 3 4 5 4 4 4 5 6 7 6 4 3 3 2 2 2 3 1 4 3 6 6 6 7 11 15 15
9 15 22 21 19 12 16 16 8 5 5 4 4 3 1 2 2 1 3 5 6 4 5 4 3 2 3 2 3 2 2 5 5 4 6 7 6 5
12 10 16 15 14 10 8 9 7 6 4 3 2 1 2 3 3 2 2 2 3 4 5 6 6 5 2 5 3 2 2 3 5 4 3 5 7 6
10 5 6 7 7 8 7 7 6 7 7 4 2 1 2 2 3 3 2 2 5 2 3 4 6 8 8 4 5 4 3 2 2 4 4 6 7 7
4 4 5 7 7 8 7 7 7 6 6 5 3 3 3 3 2 2 2 3 4 3 2 2 2 3 4 8 13 3 3 2 3 4 3 5 8 8
4 6 6 8 8 8 8 7 8 8 8 6 5 4 2 1 2 2 3 2 3 3 2 2 3 1 3 3 3 15 3 3 3 4 3 4 5 6
3 5 6 6 7 8 8 8 8 8 7 6 5 5 4 3 2 2 3 2 2 1 2 4 3 3 3 4 3 2 13 3 3 2 2 2 1 5
3 4 4 4 6 7 7 7 8 8 8 7 5 4 4 3 2 2 2 4 3 2 3 2 3 3 1 2 5 3 3 9 7 2 2 2 6 7
3 3 4 4 4 5 6 7 7 7 8 7 7 6 4 4 3 3 2 1 3 3 1 2 3 3 3 4 2 2 2 3 4 6 7 2 2 3
3 3 4 4 3 3 4 5 6 6 6 7 7 7 7 4 4 2 2 3 3 2 1 2 3 3 2 2 3 2 2 2 2 8 9 14 17 15
Wind_Direction
351 348 349 341 339 328 316 280 164 248 218 212 180 177 146 140 150 160 143 133 138 91 24 355 351 321 325 335 352 355 352 354 353 354 346 347 345 343
354 353 348 347 336 336 313 308 222 249 217 127 167 141 145 146 164 133 116 122 120 72 32 2 324 332 326 335 348 359 3 350 359 356 351 351 346 350
349 351 351 347 349 347 344 263 267 246 263 43 64 49 101 136 117 92 124 145 124 82 349 346 336 329 331 339 3 7 1 354 3 359 356 352 354 354
351 346 348 346 348 354 340 351 353 310 243 180 136 64 71 43 102 123 101 78 91 356 309 328 348 332 349 8 16 10 3 5 5 1 359 358 358 2
348 345 341 348 349 348 338 336 337 323 43 160 141 101 92 139 138 129 136 151 260 289 319 294 300 327 356 10 12 4 6 13 8 4 3 3 4 1
347 347 348 347 339 338 339 333 342 5 298 227 127 107 130 130 122 139 115 149 79 86 278 263 328 328 3 15 8 359 11 13 11 9 10 9 4 6
351 350 353 345 345 357 356 344 4 37 290 208 80 91 136 140 159 120 94 115 100 43 126 60 30 16 10 18 349 8 15 14 14 13 16 11 11 8
352 352 348 0 352 354 8 23 31 8 318 28 54 62 79 75 91 86 127 186 136 30 25 76 43 67 335 326 15 17 19 19 18 14 17 16 15 7
349 352 351 357 359 354 352 12 23 32 40 20 48 29 64 46 76 66 46 27 71 56 8 76 28 79 310 356 16 19 26 24 22 18 22 18 16 5
345 359 351 354 356 358 348 358 23 29 27 25 31 47 66 58 68 49 59 100 108 80 10 98 355 33 330 343 15 19 26 27 29 21 26 23 16 2
347 1 357 353 350 359 358 350 359 38 32 55 57 57 57 54 48 70 12 225 97 61 19 21 339 102 38 12 348 19 28 30 30 30 29 26 20 2
345 356 354 352 352 356 359 344 343 14 25 44 44 51 46 43 48 44 348 63 111 120 6 25 301 213 47 4 351 331 356 25 28 38 28 26 18 6
346 350 342 344 347 353 2 352 7 360 21 41 41 43 43 38 38 45 36 30 49 77 333 319 358 77 75 103 335 336 22 357 20 20 16 24 29 34
342 337 334 337 344 351 357 7 6 2 6 34 43 40 39 37 26 57 64 62 45 52 347 352 73 19 97 61 9 355 333 28 28 8 8 10 24 25
335 336 335 333 342 346 4 8 3 3 8 38 48 39 3 347 335 82 83 89 76 15 21 28 26 11 67 133 126 329 336 18 5 15 18 16 13 350
344 341 327 334 342 2 2 9 4 5 21 21 45 2 338 25 7 344 65 343 88 45 6 35 53 54 46 48 74 34 7 69 336 352 5 25 29 19
353 329 333 352 358 356 11 7 8 6 8 2 20 24 16 36 3 341 9 21 69 72 345 17 46 67 63 86 55 26 33 62 9 4 20 53 36 20
356 349 356 357 1 352 3 359 1 355 351 354 13 20 22 26 12 342 15 38 74 62 36 330 347 38 21 44 60 1 25 7 14 23 16 63 50 24
8 2 4 1 358 356 1 357 349 345 345 5 2 19 357 345 1 19 39 38 62 59 28 3 358 20 68 77 302 29 20 4 356 65 33 58 64 37
5 2 360 359 349 348 351 350 343 337 346 344 359 0 355 354 360 29 24 44 73 63 51 37 23 360 97 162 146 304 19 22 8 44 11 45 106 33
339 346 341 351 348 343 342 339 341 335 336 347 360 10 357 356 357 34 44 35 63 57 69 13 276 261 282 47 49 15 347 15 34 61 357 47 82 63
317 328 326 330 330 339 345 339 341 344 343 353 351 347 1 359 353 9 20 49 46 39 67 282 338 20 48 94 140 109 349 330 351 48 65 82 134 102
309 304 312 314 316 330 338 342 334 338 347 353 343 344 338 354 353 6 27 48 83 86 63 3 357 36 47 88 106 74 68 355 11 82 66 72 82 90